COSMOS 1275 DEB, 12746

Orbit data source: Space-Track

COSMOS 1275 DEB, 12746 is space debris in LEO originally from a launch on Thu, 04 Jun 1981 UTC launched from the Plesetsk Missile And Space Complex (PKMTR). Debris objects in space refer to the collection of defunct objects orbiting the Earth. Examples of debris include non-operational satellites, rocket bodies, and fragments generated from explosions, collisions, or faulty payload assembly.

Loading next visibility...
Identifier
12746, 1981-053CP
Orbit
LEO
Country
Flag of CISCIS
Related business
Manufacturer
Unknown
Mission
Spacecraft
Bus & Motor
Unknown
Mass
Unknown
Launch date (UTC)
1981-06-04 (45 years ago)
Launch vehicle
Unknown
Launch site
Plesetsk Missile And Space Complex (PKMTR)
Object type
Payload
Rocket body
Debris
Shape & HBR
Unknown shape, 0.2 m
Radar Cross Section
Small (<0.1 m²)

Expand to show TLE details & history
Last TLE update: 11 hours ago

TLE from 11 hours ago
0 COSMOS 1275 DEB
1 12746U 81053CP  25350.91547749  .00003456  00000-0  13439-2 0  9998
2 12746  82.9358 301.1000 0038941  97.3431 263.2184 14.29188873261011
Epoch: 2025-12-16T21:58Z
TLE epoch observation values (Epoch: 2025-12-16T21:58:17.255Z)
Latitude
0.00004°
Longitude
-114.26473°
Altitude
800.825 km
Speed
7.451 km/s
True Right ascension
20h 04m 24s
True Declination
0° 00' 00"
Sunlit
Object was in daylight at epoch
Visualization orbit readout
Latitude
Unknown
Longitude
Unknown
Altitude
Unknown
Speed
Unknown
Apparent Right ascension
Unknown
Apparent Declination
Unknown
Sunlit
N/A
Visualization observer readout
Local Sidereal Time
07:14:55
Azimuth
Unknown
Elevation
Unknown
Doppler factor
Unknown
Orbital elements
Apogee altitude
819.437 km
Perigee altitude
763.598 km
Semi-major axis
7,169.655 km
Eccentricity
0.00389
Inclination
82.9358°
RAAN
301.1°
Arg. of periapsis
97.3431°
True anomaly
262.77555°
Mean anomaly
263.2184°
Eccentric anomaly
262.99695°
Mean motion
3.57516 °/min
Orbital period
100.69 mins
BSTAR
0.0013439
Loading maneuver chart data...
Computing Atmospheric mass density...

Documentation

Showing up to 5 results
|